CDT,Max TemperatureF,Mean TemperatureF,Min TemperatureF,Max Dew PointF,MeanDew PointF,Min DewpointF,Max Humidity, Mean Humidity, Min Humidity, Max Sea Level PressureIn, Mean Sea Level PressureIn, Min Sea Level PressureIn, Max VisibilityMiles, Mean VisibilityMiles, Min VisibilityMiles, Max Wind SpeedMPH, Mean Wind SpeedMPH, Max Gust SpeedMPH,PrecipitationIn, CloudCover, Events, WindDirDegrees
2013-10-1,75,60,44,48,39,27,82,50,17,29.98,29.87,29.59,10,10,10,20,7,23,0.00,0,,298
2013-10-2,82,64,46,55,45,36,89,62,34,29.96,29.87,29.77,10,10,10,22,10,28,0.00,1,,137
2013-10-3,56,53,50,54,50,48,100,92,83,29.97,29.90,29.85,10,8,1,22,11,37,0.93,8,Rain,24
2013-10-4,58,52,46,54,50,44,93,88,83,29.94,29.81,29.62,10,9,2,30,18,40,0.52,8,Rain,67
2013-10-5,47,43,39,43,39,34,92,86,79,29.88,29.70,29.62,10,6,1,20,12,29,0.13,8,Rain,62
2013-10-6,63,53,43,43,39,32,96,64,32,30.01,29.93,29.83,10,9,5,25,16,32,0.09,5,Rain,324
2013-10-7,73,55,36,45,41,35,100,68,35,30.01,29.94,29.80,10,10,10,13,5,21,0.00,0,,193
2013-10-8,76,65,53,46,44,43,74,51,23,29.78,29.70,29.65,10,10,10,22,12,30,0.00,0,,180
2013-10-9,73,58,43,50,47,41,93,65,33,29.94,29.88,29.79,10,10,10,14,5,17,0.00,0,,138
2013-10-10,76,64,52,55,52,48,89,67,47,29.86,29.76,29.59,10,10,10,20,9,29,0.02,0,,161
2013-10-11,71,60,49,55,49,39,84,61,37,29.75,29.52,29.33,10,10,10,33,19,48,0.02,4,Rain,189
2013-10-12,61,49,37,38,30,24,70,48,25,30.27,30.03,29.78,10,10,10,30,15,38,0.00,3,,287
2013-10-13,65,48,30,37,32,27,89,58,27,30.42,30.33,30.24,10,10,10,17,6,23,0.00,3,,139
2013-10-14,56,51,45,46,44,33,100,72,43,30.23,29.97,29.71,10,5,2,24,13,36,2.94,8,Rain,119
2013-10-15,48,42,35,46,41,35,100,90,79,30.11,29.92,29.69,10,9,5,29,18,37,0.22,8,Rain,343
2013-10-16,58,44,30,37,32,27,96,66,36,30.11,30.02,29.89,10,10,9,13,6,20,0.00,0,,262
2013-10-17,46,38,30,41,35,27,92,81,70,30.09,29.97,29.85,10,10,7,24,10,30,0.08,5,Rain,312
2013-10-18,51,39,26,35,30,25,92,69,46,30.10,30.04,29.90,10,10,10,23,8,28,T,4,,271
2013-10-19,51,45,39,39,35,33,92,72,52,29.88,29.82,29.75,10,10,6,17,8,22,0.09,8,Rain,276
2013-10-20,50,42,34,41,35,26,82,73,64,30.07,29.82,29.63,10,10,9,31,13,37,T,7,Rain,308
2013-10-21,48,40,32,35,32,30,92,73,53,30.07,30.02,29.96,10,10,8,15,6,17,0.07,8,Rain,292
2013-10-22,40,35,29,34,31,29,92,78,64,30.14,30.05,29.94,10,7,1,9,4,12,0.09,7,Rain-Snow,24
2013-10-23,40,35,29,36,31,26,96,83,70,30.28,30.14,30.04,10,9,2,16,6,20,0.02,7,Rain-Snow,360
2013-10-24,50,39,28,29,26,23,85,61,36,30.40,30.36,30.29,10,10,10,17,8,22,0.00,1,,305
2013-10-25,66,46,26,42,33,22,85,63,40,30.35,30.11,29.91,10,10,10,21,10,25,0.00,0,,200
2013-10-26,49,40,30,31,27,25,78,59,39,30.29,30.18,30.05,10,10,9,18,9,23,0.00,0,,316
2013-10-27,58,44,30,34,29,25,88,63,28,30.20,29.95,29.86,10,10,10,21,9,26,0.00,0,,48
2013-10-28,39,34,29,28,26,23,89,69,47,30.44,30.37,30.21,10,10,10,22,12,39,0.01,5,,44
2013-10-29,36,34,31,34,31,26,96,87,78,30.38,30.21,30.07,10,4,2,15,8,18,0.16,8,Rain-Snow,38
2013-10-30,37,36,34,36,34,32,100,96,92,30.09,29.91,29.75,10,5,0,9,5,10,T,8,Fog-Rain,314
2013-10-31,51,43,35,36,34,32,92,73,54,29.77,29.60,29.48,10,10,7,21,9,25,T,6,Rain,275